Time,TemperatureF,DewpointF,PressureIn,WindDirection,WindDirectionDegrees,WindSpeedMPH,WindSpeedGustMPH,Humidity,HourlyPrecipIn,Conditions,Clouds,dailyrainin,SoftwareType,DateUTC
2013-03-23 00:02:00,32.0,29.0,30.38,SSE,153,3.0,4.0,87,0.00,,,0.00,,2013-03-23 07:02:00,
2013-03-23 00:11:00,32.0,29.0,30.38,SSE,153,3.0,4.0,87,0.00,,,0.00,,2013-03-23 07:11:00,
2013-03-23 00:22:00,32.0,29.0,30.38,SSE,153,3.0,4.0,87,0.00,,,0.00,,2013-03-23 07:22:00,
2013-03-23 00:32:00,32.0,29.0,30.38,SSE,153,3.0,4.0,87,0.00,,,0.00,,2013-03-23 07:32:00,
2013-03-23 00:42:00,32.0,29.0,30.38,SSE,153,3.0,4.0,87,0.00,,,0.00,,2013-03-23 07:42:00,
2013-03-23 00:52:00,32.0,29.0,30.38,SSE,153,3.0,4.0,87,0.00,,,0.00,,2013-03-23 07:52:00,
2013-03-23 01:02:00,32.0,29.0,30.38,SSE,153,3.0,4.0,88,0.00,,,0.00,,2013-03-23 08:02:00,
2013-03-23 01:12:00,32.0,29.0,30.38,SSE,153,3.0,4.0,88,0.00,,,0.00,,2013-03-23 08:12:00,
2013-03-23 01:22:00,32.0,29.0,30.37,SSE,153,3.0,4.0,88,0.00,,,0.00,,2013-03-23 08:22:00,
2013-03-23 01:31:00,33.0,30.0,30.37,SSE,153,3.0,4.0,88,0.00,,,0.00,,2013-03-23 08:31:00,
2013-03-23 01:42:00,33.0,30.0,30.37,SSE,153,3.0,4.0,88,0.00,,,0.00,,2013-03-23 08:42:00,
2013-03-23 01:52:00,33.0,30.0,30.37,NNW,345,3.0,4.0,88,0.00,,,0.00,,2013-03-23 08:52:00,
2013-03-23 02:01:00,33.0,30.0,30.38,NNW,342,3.0,4.0,88,0.00,,,0.00,,2013-03-23 09:01:00,
2013-03-23 02:11:00,33.0,30.0,30.38,NNW,342,3.0,4.0,88,0.00,,,0.00,,2013-03-23 09:11:00,
2013-03-23 02:22:00,33.0,30.0,30.39,NNW,336,3.0,4.0,88,0.00,,,0.00,,2013-03-23 09:22:00,
2013-03-23 02:32:00,34.0,31.0,30.39,NNW,343,1.0,4.0,88,0.00,,,0.00,,2013-03-23 09:32:00,
2013-03-23 02:42:00,34.0,31.0,30.39,NNW,343,1.0,4.0,88,0.00,,,0.00,,2013-03-23 09:42:00,
2013-03-23 02:53:00,34.0,31.0,30.39,NNW,339,1.0,4.0,88,0.00,,,0.00,,2013-03-23 09:53:00,
2013-03-23 03:02:00,36.0,33.0,30.39,North,355,2.0,8.0,88,0.00,,,0.00,,2013-03-23 10:02:00,
2013-03-23 03:12:00,36.0,33.0,30.39,North,355,2.0,8.0,88,0.00,,,0.00,,2013-03-23 10:12:00,
2013-03-23 03:22:00,37.0,34.0,30.39,NNE,32,1.0,4.0,87,0.00,,,0.00,,2013-03-23 10:22:00,
2013-03-23 03:33:00,37.0,34.0,30.39,North,355,1.0,4.0,87,0.00,,,0.00,,2013-03-23 10:33:00,
2013-03-23 03:42:00,37.0,34.0,30.39,North,355,1.0,4.0,87,0.00,,,0.00,,2013-03-23 10:42:00,
2013-03-23 03:52:00,37.0,34.0,30.39,NW,305,1.0,4.0,87,0.00,,,0.00,,2013-03-23 10:52:00,
2013-03-23 04:02:00,37.0,34.0,30.38,North,5,1.0,3.0,87,0.00,,,0.00,,2013-03-23 11:02:00,
2013-03-23 04:12:00,37.0,34.0,30.38,North,5,1.0,3.0,87,0.00,,,0.00,,2013-03-23 11:12:00,
2013-03-23 04:22:00,37.0,34.0,30.38,NE,53,1.0,5.0,87,0.00,,,0.00,,2013-03-23 11:22:00,
2013-03-23 04:32:00,37.0,34.0,30.38,NW,323,1.0,4.0,87,0.00,,,0.00,,2013-03-23 11:32:00,
2013-03-23 04:42:00,37.0,34.0,30.38,NW,323,1.0,4.0,87,0.00,,,0.00,,2013-03-23 11:42:00,
2013-03-23 04:52:00,38.0,34.0,30.38,WNW,300,1.0,8.0,87,0.00,,,0.00,,2013-03-23 11:52:00,
2013-03-23 05:01:00,38.0,34.0,30.38,WNW,300,1.0,8.0,87,0.00,,,0.00,,2013-03-23 12:01:00,
2013-03-23 05:12:00,38.0,34.0,30.38,WNW,300,1.0,8.0,87,0.00,,,0.00,,2013-03-23 12:12:00,
2013-03-23 05:22:00,38.0,34.0,30.38,WNW,300,1.0,8.0,87,0.00,,,0.00,,2013-03-23 12:22:00,
2013-03-23 05:32:00,38.0,34.0,30.38,WNW,300,1.0,8.0,87,0.00,,,0.00,,2013-03-23 12:32:00,
2013-03-23 09:23:00,40.0,34.0,30.40,North,5,2.0,6.0,79,0.00,,,0.00,,2013-03-23 16:23:00,
2013-03-23 09:33:00,40.0,33.0,30.39,ESE,103,3.0,10.0,77,0.00,,,0.00,,2013-03-23 16:33:00,
2013-03-23 09:43:00,40.0,33.0,30.39,ESE,103,3.0,10.0,77,0.00,,,0.00,,2013-03-23 16:43:00,
2013-03-23 09:53:00,40.0,33.0,30.39,NW,326,3.0,7.0,75,0.00,,,0.00,,2013-03-23 16:53:00,
2013-03-23 10:02:00,41.0,34.0,30.39,NW,325,2.0,10.0,75,0.00,,,0.00,,2013-03-23 17:02:00,
2013-03-23 10:11:00,41.0,34.0,30.39,NW,325,2.0,10.0,75,0.00,,,0.00,,2013-03-23 17:11:00,
2013-03-23 10:22:00,41.0,33.0,30.40,NNW,346,2.0,5.0,73,0.00,,,0.00,,2013-03-23 17:22:00,
2013-03-23 10:32:00,42.0,33.0,30.39,SSE,165,3.0,5.0,70,0.00,,,0.00,,2013-03-23 17:32:00,
2013-03-23 10:42:00,42.0,33.0,30.39,SSE,165,3.0,5.0,70,0.00,,,0.00,,2013-03-23 17:42:00,
2013-03-23 10:52:00,43.0,34.0,30.40,SE,139,3.0,7.0,69,0.00,,,0.00,,2013-03-23 17:52:00,
2013-03-23 11:02:00,44.0,35.0,30.40,SSE,163,2.0,7.0,70,0.00,,,0.00,,2013-03-23 18:02:00,
2013-03-23 11:12:00,44.0,35.0,30.40,SSE,163,2.0,7.0,70,0.00,,,0.00,,2013-03-23 18:12:00,
2013-03-23 11:22:00,45.0,34.0,30.40,South,185,2.0,6.0,65,0.00,,,0.00,,2013-03-23 18:22:00,
2013-03-23 11:31:00,45.0,34.0,30.40,SE,145,7.0,10.0,66,0.00,,,0.00,,2013-03-23 18:31:00,
2013-03-23 11:42:00,45.0,34.0,30.40,SE,145,7.0,10.0,66,0.00,,,0.00,,2013-03-23 18:42:00,
2013-03-23 11:52:00,44.0,35.0,30.40,SE,146,11.0,14.0,71,0.00,,,0.00,,2013-03-23 18:52:00,
2013-03-23 12:02:00,44.0,36.0,30.39,SSE,161,8.0,14.0,73,0.00,,,0.00,,2013-03-23 19:02:00,
2013-03-23 12:12:00,44.0,36.0,30.39,SSE,161,8.0,14.0,73,0.00,,,0.00,,2013-03-23 19:12:00,
2013-03-23 12:22:00,44.0,36.0,30.39,SSE,150,13.0,16.0,73,0.00,,,0.00,,2013-03-23 19:22:00,
2013-03-23 12:32:00,44.0,36.0,30.38,SSE,163,14.0,16.0,72,0.00,,,0.00,,2013-03-23 19:32:00,
2013-03-23 12:43:00,44.0,36.0,30.38,SSE,163,14.0,16.0,72,0.00,,,0.00,,2013-03-23 19:43:00,
2013-03-23 12:53:00,43.0,35.0,30.38,SSE,148,13.0,16.0,72,0.00,,,0.00,,2013-03-23 19:53:00,
2013-03-23 13:02:00,44.0,36.0,30.37,SSE,151,11.0,16.0,72,0.00,,,0.00,,2013-03-23 20:02:00,
2013-03-23 13:12:00,44.0,36.0,30.37,SSE,151,11.0,16.0,72,0.00,,,0.00,,2013-03-23 20:12:00,
2013-03-23 13:22:00,45.0,37.0,30.37,South,171,10.0,16.0,72,0.00,,,0.00,,2013-03-23 20:22:00,
2013-03-23 13:32:00,46.0,37.0,30.37,SSE,152,10.0,14.0,70,0.00,,,0.00,,2013-03-23 20:32:00,
2013-03-23 13:42:00,46.0,37.0,30.37,SSE,152,10.0,14.0,70,0.00,,,0.00,,2013-03-23 20:42:00,
2013-03-23 13:52:00,46.0,37.0,30.37,SE,132,10.0,15.0,70,0.00,,,0.00,,2013-03-23 20:52:00,
2013-03-23 14:02:00,44.0,36.0,30.37,SSE,149,9.0,14.0,72,0.00,,,0.00,,2013-03-23 21:02:00,
2013-03-23 14:12:00,44.0,36.0,30.37,SSE,149,9.0,14.0,72,0.00,,,0.00,,2013-03-23 21:12:00,
2013-03-23 14:22:00,44.0,35.0,30.37,SE,145,4.0,12.0,70,0.00,,,0.00,,2013-03-23 21:22:00,
2013-03-23 14:32:00,45.0,35.0,30.37,SSE,160,5.0,9.0,68,0.00,,,0.00,,2013-03-23 21:32:00,
2013-03-23 14:42:00,45.0,35.0,30.37,SSE,160,5.0,9.0,68,0.00,,,0.00,,2013-03-23 21:42:00,
2013-03-23 14:53:00,47.0,35.0,30.37,SSE,159,6.0,10.0,63,0.00,,,0.00,,2013-03-23 21:53:00,
2013-03-23 15:02:00,48.0,36.0,30.36,South,179,3.0,9.0,62,0.00,,,0.00,,2013-03-23 22:02:00,
2013-03-23 15:12:00,48.0,36.0,30.36,South,179,3.0,9.0,62,0.00,,,0.00,,2013-03-23 22:12:00,
2013-03-23 15:22:00,48.0,34.0,30.36,South,171,7.0,9.0,58,0.00,,,0.00,,2013-03-23 22:22:00,
2013-03-23 15:32:00,48.0,34.0,30.35,SSE,165,6.0,10.0,57,0.00,,,0.00,,2013-03-23 22:32:00,
2013-03-23 15:42:00,48.0,34.0,30.35,SSE,165,6.0,10.0,57,0.00,,,0.00,,2013-03-23 22:42:00,
2013-03-23 15:53:00,47.0,32.0,30.35,SE,143,7.0,11.0,56,0.00,,,0.00,,2013-03-23 22:53:00,
2013-03-23 16:02:00,47.0,32.0,30.35,SE,144,7.0,11.0,56,0.00,,,0.00,,2013-03-23 23:02:00,
2013-03-23 16:12:00,47.0,32.0,30.35,SE,144,7.0,11.0,56,0.00,,,0.00,,2013-03-23 23:12:00,
2013-03-23 16:22:00,48.0,34.0,30.35,South,178,4.0,9.0,57,0.00,,,0.00,,2013-03-23 23:22:00,
2013-03-23 16:32:00,47.0,33.0,30.35,South,182,3.0,9.0,59,0.00,,,0.00,,2013-03-23 23:32:00,
2013-03-23 16:42:00,47.0,33.0,30.35,South,182,3.0,9.0,59,0.00,,,0.00,,2013-03-23 23:42:00,
2013-03-23 16:52:00,46.0,33.0,30.35,SSE,161,4.0,6.0,60,0.00,,,0.00,,2013-03-23 23:52:00,
2013-03-23 17:01:00,46.0,32.0,30.34,South,177,3.0,5.0,59,0.00,,,0.00,,2013-03-24 00:01:00,
2013-03-23 17:12:00,46.0,32.0,30.34,South,177,3.0,5.0,59,0.00,,,0.00,,2013-03-24 00:12:00,
2013-03-23 17:22:00,46.0,31.0,30.34,SSW,205,2.0,4.0,56,0.00,,,0.00,,2013-03-24 00:22:00,
2013-03-23 17:32:00,47.0,31.0,30.34,South,180,2.0,4.0,54,0.00,,,0.00,,2013-03-24 00:32:00,
2013-03-23 17:42:00,47.0,31.0,30.34,South,180,2.0,4.0,54,0.00,,,0.00,,2013-03-24 00:42:00,
2013-03-23 17:52:00,46.0,31.0,30.33,SSE,168,1.0,4.0,55,0.00,,,0.00,,2013-03-24 00:52:00,
2013-03-23 18:02:00,46.0,30.0,30.34,South,188,2.0,4.0,54,0.00,,,0.00,,2013-03-24 01:02:00,
2013-03-23 18:12:00,46.0,30.0,30.34,South,188,2.0,4.0,54,0.00,,,0.00,,2013-03-24 01:12:00,
2013-03-23 18:22:00,46.0,32.0,30.33,South,169,0.0,3.0,59,0.00,,,0.00,,2013-03-24 01:22:00,
2013-03-23 18:32:00,45.0,32.0,30.33,South,169,0.0,1.0,61,0.00,,,0.00,,2013-03-24 01:32:00,
2013-03-23 18:42:00,45.0,32.0,30.33,South,169,0.0,1.0,61,0.00,,,0.00,,2013-03-24 01:42:00,
2013-03-23 18:52:00,44.0,33.0,30.33,South,169,0.0,1.0,65,0.00,,,0.00,,2013-03-24 01:52:00,
2013-03-23 19:12:00,43.0,33.0,30.33,South,169,0.0,1.0,68,0.00,,,0.00,,2013-03-24 02:12:00,
2013-03-23 19:21:00,43.0,33.0,30.33,South,169,1.0,2.0,68,0.00,,,0.00,,2013-03-24 02:21:00,
2013-03-23 19:32:00,41.0,32.0,30.32,South,169,2.0,2.0,71,0.00,,,0.00,,2013-03-24 02:32:00,
2013-03-23 19:42:00,41.0,32.0,30.32,South,169,2.0,2.0,71,0.00,,,0.00,,2013-03-24 02:42:00,
2013-03-23 19:52:00,40.0,32.0,30.32,South,169,2.0,3.0,73,0.00,,,0.00,,2013-03-24 02:52:00,
2013-03-23 20:02:00,39.0,32.0,30.32,South,169,3.0,3.0,75,0.00,,,0.00,,2013-03-24 03:02:00,
2013-03-23 20:12:00,39.0,32.0,30.32,South,169,3.0,3.0,75,0.00,,,0.00,,2013-03-24 03:12:00,
2013-03-23 20:22:00,38.0,32.0,30.32,NNW,341,3.0,3.0,78,0.00,,,0.00,,2013-03-24 03:22:00,
2013-03-23 20:32:00,38.0,32.0,30.32,NNW,341,2.0,3.0,79,0.00,,,0.00,,2013-03-24 03:32:00,
2013-03-23 20:42:00,38.0,32.0,30.32,NNW,341,2.0,3.0,79,0.00,,,0.00,,2013-03-24 03:42:00,
2013-03-23 20:53:00,38.0,32.0,30.32,NNW,341,2.0,3.0,80,0.00,,,0.00,,2013-03-24 03:53:00,
2013-03-23 21:02:00,38.0,33.0,30.32,NNW,341,2.0,3.0,81,0.00,,,0.00,,2013-03-24 04:02:00,
2013-03-23 21:12:00,38.0,33.0,30.32,NNW,341,2.0,3.0,81,0.00,,,0.00,,2013-03-24 04:12:00,
2013-03-23 21:22:00,37.0,32.0,30.32,NNW,341,1.0,3.0,81,0.00,,,0.00,,2013-03-24 04:22:00,
2013-03-23 21:32:00,37.0,32.0,30.32,NNW,341,3.0,4.0,82,0.00,,,0.00,,2013-03-24 04:32:00,
2013-03-23 21:42:00,37.0,32.0,30.32,NNW,341,3.0,4.0,82,0.00,,,0.00,,2013-03-24 04:42:00,
2013-03-23 21:52:00,37.0,32.0,30.32,NNW,341,2.0,3.0,83,0.00,,,0.00,,2013-03-24 04:52:00,
2013-03-23 22:02:00,36.0,31.0,30.32,NNW,341,3.0,3.0,83,0.00,,,0.00,,2013-03-24 05:02:00,
2013-03-23 22:12:00,36.0,31.0,30.32,NNW,341,3.0,3.0,83,0.00,,,0.00,,2013-03-24 05:12:00,
2013-03-23 22:22:00,36.0,32.0,30.32,NNW,341,3.0,3.0,84,0.00,,,0.00,,2013-03-24 05:22:00,
2013-03-23 22:32:00,36.0,32.0,30.32,NNW,341,3.0,3.0,84,0.00,,,0.00,,2013-03-24 05:32:00,
2013-03-23 22:42:00,36.0,32.0,30.32,NNW,341,3.0,3.0,84,0.00,,,0.00,,2013-03-24 05:42:00,
2013-03-23 22:52:00,36.0,32.0,30.32,NNW,341,3.0,3.0,84,0.00,,,0.00,,2013-03-24 05:52:00,
2013-03-23 23:01:00,36.0,32.0,30.32,NNW,341,2.0,3.0,84,0.00,,,0.00,,2013-03-24 06:01:00,
2013-03-23 23:11:00,36.0,32.0,30.32,NNW,341,2.0,3.0,84,0.00,,,0.00,,2013-03-24 06:11:00,
2013-03-23 23:21:00,36.0,32.0,30.32,NNW,341,3.0,3.0,85,0.00,,,0.00,,2013-03-24 06:21:00,
2013-03-23 23:32:00,35.0,31.0,30.32,NNW,341,3.0,3.0,85,0.00,,,0.00,,2013-03-24 06:32:00,
2013-03-23 23:42:00,35.0,31.0,30.32,NNW,341,3.0,3.0,85,0.00,,,0.00,,2013-03-24 06:42:00,
2013-03-23 23:51:00,35.0,31.0,30.32,NNW,341,3.0,4.0,85,0.00,,,0.00,,2013-03-24 06:51:00,